Date String (YYYY-MM-DD hh:mm:ss) UTC,Instrument flags,absolute air pressure of the measurement (hPa),sample flow rate (lpm),inlet stack bypass flow (lpm),air temperature of the measurement (°C),ambient temperature measured by the external sensor (°C),aerosol sample conditioner tube jacket temperature (°C),OPC LED temperature (°C),internal box temperature (°C),relative humidity of the measurement (%),span deviation,mass concentration of particles derived from Lorenz-Mie calculation of OPC scattering (μg/m³),mass concentration of particles derived from Lorenz-Mie calculation of OPC scattering (μg/m³),mass concentration of particles derived from Lorenz-Mie calculation of OPC scattering (μg/m³)
DateTimeUTC,F1_M11,P_M11,Q1_M11,Q2_M11,T1_M11,T2_M11,T3_M11,T4_M11,T5_M11,U1_M11,ZSPAN_M11,X0_M11,X2_M11,X1_M11
2023-06-25 12:00:00,SystemResetWarning,0835.8,5.00,000.00,030.6,029.0,000.0,039.2,032.1,23.6,0000.0,0011.05,0003.30,0002.20
2023-06-25 12:01:00,SystemResetWarning,0835.8,5.00,000.00,030.6,029.0,000.0,039.2,032.1,23.6,0000.0,0010.33,0003.28,0002.16
2023-06-25 12:02:00,SystemResetWarning,0835.8,5.01,000.00,030.6,029.0,000.0,039.2,032.1,23.6,0000.0,0010.23,0003.24,0002.11
2023-06-25 12:03:00,SystemResetWarning,0835.8,5.00,000.00,030.6,029.0,000.0,039.2,032.1,23.6,0000.0,0010.53,0003.21,0002.08
2023-06-25 12:04:00,SystemResetWarning,0835.8,5.00,000.00,030.6,029.0,000.0,039.2,032.1,23.6,0000.0,0011.10,0003.21,0002.08
2023-06-25 12:05:00,SystemResetWarning,0835.8,5.00,000.00,030.6,029.0,000.0,039.2,032.1,23.6,0000.0,0011.04,0003.24,0002.07
2023-06-25 12:06:00,SystemResetWarning,0835.8,4.99,000.00,030.7,029.0,000.0,039.2,032.1,23.6,0000.0,0010.50,0003.25,0002.06
2023-06-25 12:07:00,SystemResetWarning,0835.9,5.00,000.00,030.7,029.0,000.0,039.2,032.1,23.6,0000.0,0009.69,0003.25,0002.04
2023-06-25 12:08:00,SystemResetWarning,0835.8,5.00,000.00,030.7,029.0,000.0,039.2,032.1,23.6,0000.0,0009.65,0003.23,0002.03
2023-06-25 12:09:00,SystemResetWarning,0835.8,5.00,000.00,030.7,029.0,000.0,039.3,032.1,23.6,0000.0,0009.85,0003.26,0002.02
2023-06-25 12:10:00,SystemResetWarning,0835.8,5.00,000.00,030.7,029.0,000.0,039.3,032.1,23.6,0000.0,0010.51,0003.29,0002.02
2023-06-25 12:11:00,SystemResetWarning,0835.8,5.00,000.00,030.7,029.0,000.0,039.2,032.1,23.6,0000.0,0010.85,0003.28,0002.02
2023-06-25 12:12:00,SystemResetWarning,0835.8,5.00,000.00,030.7,029.0,000.0,039.2,032.1,23.6,0000.0,0010.72,0003.27,0002.04
2023-06-25 12:13:00,SystemResetWarning,0835.8,5.00,000.00,030.7,029.0,000.0,039.3,032.1,23.7,0000.0,0011.36,0003.33,0002.05
2023-06-25 12:14:00,SystemResetWarning,0835.8,5.01,000.00,030.7,029.0,000.0,039.3,032.1,23.7,0000.0,0010.84,0003.33,0002.04
2023-06-25 12:15:00,SystemResetWarning,0835.8,5.00,000.00,030.7,029.0,000.0,039.3,032.1,23.6,0000.0,0009.88,0003.31,0002.02
2023-06-25 12:16:00,SystemResetWarning,0835.8,5.00,000.00,030.7,029.1,000.0,039.2,032.1,23.6,0000.0,0009.92,0003.28,0002.00
2023-06-25 12:17:00,SystemResetWarning,0835.8,5.00,000.00,030.7,029.1,000.0,039.2,032.1,23.7,0000.0,0009.67,0003.26,0002.01
2023-06-25 12:18:00,SystemResetWarning,0835.8,5.00,000.00,030.7,029.1,000.0,039.3,032.1,24.0,0000.0,0009.61,0003.23,0002.02
2023-06-25 12:19:00,SystemResetWarning,0835.8,5.00,000.00,030.7,029.1,000.0,039.3,032.2,23.8,0000.0,0010.45,0003.26,0002.03
2023-06-25 12:20:00,SystemResetWarning,0835.8,4.99,000.00,030.7,029.1,000.0,039.3,032.1,24.0,0000.0,0011.06,0003.28,0002.02
2023-06-25 12:21:00,SystemResetWarning,0835.8,4.99,000.00,030.7,029.1,000.0,039.3,032.1,24.1,0000.0,0010.64,0003.25,0002.01
2023-06-25 12:22:00,SystemResetWarning,0835.8,4.99,000.00,030.7,029.1,000.0,039.3,032.1,24.7,0000.0,0010.13,0003.25,0002.00
2023-06-25 12:23:00,SystemResetWarning,0835.8,5.01,000.00,030.7,029.1,000.0,039.3,032.2,24.6,0000.0,0010.20,0003.27,0002.01
2023-06-25 12:24:00,SystemResetWarning,0835.8,5.01,000.00,030.7,029.1,000.0,039.3,032.1,24.3,0000.0,0009.70,0003.23,0002.03
2023-06-25 12:25:00,SystemResetWarning,0835.8,5.00,000.00,030.8,029.1,000.0,039.3,032.1,24.8,0000.0,0009.49,0003.20,0002.04
2023-06-25 12:26:00,SystemResetWarning,0835.8,5.00,000.00,030.8,029.1,000.0,039.3,032.2,25.6,0000.0,0009.45,0003.23,0002.05
2023-06-25 12:27:00,SystemResetWarning,0835.8,5.01,000.00,030.8,029.0,000.0,039.3,032.2,24.8,0000.0,0009.18,0003.24,0002.06
2023-06-25 12:28:00,SystemResetWarning,0835.8,4.98,000.00,030.8,027.4,000.0,039.3,032.2,24.4,0000.0,0008.48,0003.22,0002.06
2023-06-25 12:29:00,SystemResetWarning,0835.8,5.01,000.00,030.7,025.9,000.0,039.2,032.2,24.5,0000.0,0008.60,0003.23,0002.04
2023-06-25 12:30:00,SystemResetWarning,0835.8,5.02,000.00,030.7,025.8,000.0,039.2,031.9,25.1,0000.0,0009.59,0003.25,0002.03
2023-06-25 12:31:00,SystemResetWarning,0835.8,5.00,000.00,030.5,026.1,000.0,039.1,031.7,24.7,0000.0,0008.63,0003.26,0002.04
2023-06-25 12:32:00,SystemResetWarning,0835.8,5.00,000.00,030.5,026.5,000.0,039.1,031.7,24.4,0000.0,0008.61,0003.27,0002.06
2023-06-25 12:33:00,SystemResetWarning,0835.8,5.00,000.00,030.4,026.9,000.0,039.1,031.7,24.6,0000.0,0008.55,0003.26,0002.06
2023-06-25 12:34:00,SystemResetWarning,0835.8,5.00,000.00,030.4,027.2,000.0,039.1,031.7,24.2,0000.0,0008.51,0003.26,0002.05
2023-06-25 12:35:00,SystemResetWarning,0835.8,5.00,000.00,030.4,027.5,000.0,039.1,031.7,24.4,0000.0,0009.12,0003.28,0002.04
2023-06-25 12:36:00,SystemResetWarning,0835.8,4.99,000.00,030.4,027.8,000.0,039.1,031.7,24.2,0000.0,0009.70,0003.29,0002.05
2023-06-25 12:37:00,SystemResetWarning,0835.9,5.00,000.00,030.4,027.9,000.0,039.0,031.7,24.6,0000.0,0009.86,0003.27,0002.06
2023-06-25 12:38:00,SystemResetWarning,0835.8,5.00,000.00,030.4,028.1,000.0,039.0,031.7,25.0,0000.0,0010.22,0003.27,0002.08
2023-06-25 12:39:00,SystemResetWarning,0835.8,5.00,000.00,030.4,028.2,000.0,039.0,031.7,24.7,0000.0,0010.51,0003.31,0002.11
2023-06-25 12:40:00,SystemResetWarning,0835.8,5.00,000.00,030.4,028.3,000.0,039.0,031.8,24.5,0000.0,0010.56,0003.30,0002.13
2023-06-25 12:41:00,SystemResetWarning,0835.8,5.00,000.00,030.4,028.4,000.0,039.0,031.8,24.5,0000.0,0009.06,0003.26,0002.14
2023-06-25 12:42:00,SystemResetWarning,0835.8,5.01,000.00,030.4,028.5,000.0,039.0,031.8,24.7,0000.0,0009.83,0003.27,0002.14
2023-06-25 12:43:00,SystemResetWarning,0835.8,5.01,000.00,030.4,028.6,000.0,039.0,031.8,24.9,0000.0,0010.46,0003.30,0002.14
2023-06-25 12:44:00,SystemResetWarning,0835.8,5.00,000.00,030.4,028.6,000.0,039.0,031.8,25.2,0000.0,0010.53,0003.32,0002.15
2023-06-25 12:45:00,SystemResetWarning,0835.8,5.00,000.00,030.4,028.7,000.0,039.0,031.9,25.1,0000.0,0010.45,0003.29,0002.15
2023-06-25 12:46:00,SystemResetWarning,0835.8,5.00,000.00,030.4,028.7,000.0,039.0,031.8,25.2,0000.0,0010.33,0003.24,0002.14
2023-06-25 12:47:00,SystemResetWarning,0835.8,4.99,000.00,030.4,028.7,000.0,039.0,031.9,24.8,0000.0,0009.89,0003.22,0002.11
2023-06-25 12:48:00,SystemResetWarning,0835.8,5.00,000.00,030.4,028.8,000.0,039.0,031.9,24.8,0000.0,0010.42,0003.21,0002.10
2023-06-25 12:49:00,SystemResetWarning,0835.8,5.00,000.00,030.4,028.8,000.0,039.0,031.9,24.5,0000.0,0010.24,0003.19,0002.07
2023-06-25 12:50:00,SystemResetWarning,0835.8,5.01,000.00,030.4,028.8,000.0,039.0,031.9,25.0,0000.0,0009.94,0003.19,0002.05
2023-06-25 12:51:00,SystemResetWarning,0835.8,5.00,000.00,030.5,028.8,000.0,039.0,031.9,25.2,0000.0,0009.67,0003.18,0002.04
2023-06-25 12:52:00,SystemResetWarning,0835.8,5.00,000.00,030.5,028.9,000.0,039.0,031.9,25.4,0000.0,0009.66,0003.20,0002.03
2023-06-25 12:53:00,SystemResetWarning,0835.8,5.00,000.00,030.5,028.9,000.0,039.0,032.0,25.0,0000.0,0009.00,0003.18,0002.04
2023-06-25 12:54:00,SystemResetWarning,0835.8,5.01,000.00,030.5,028.9,000.0,039.0,032.0,25.0,0000.0,0008.46,0003.15,0002.04
2023-06-25 12:55:00,SystemResetWarning,0835.8,5.00,000.00,030.5,028.9,000.0,039.0,032.0,24.8,0000.0,0009.02,0003.11,0002.04
2023-06-25 12:56:00,SystemResetWarning,0835.8,5.00,000.00,030.5,028.9,000.0,039.1,032.0,24.6,0000.0,0009.69,0003.14,0002.03
2023-06-25 12:57:00,SystemResetWarning,0835.8,5.00,000.00,030.5,028.9,000.0,039.1,032.0,24.2,0000.0,0010.49,0003.21,0002.03
2023-06-25 12:58:00,SystemResetWarning,0835.8,5.00,000.00,030.5,029.0,000.0,039.1,032.0,24.2,0000.0,0010.09,0003.21,0002.03
2023-06-25 12:59:00,SystemResetWarning,0835.8,5.01,000.00,030.5,029.0,000.0,039.1,032.0,24.0,0000.0,0009.60,0003.20,0002.02
